Theta_e
310 312 319 322 329 334 338 338 336 335 334 332 332 332 332 333 333 333 334 337 338 341 344 347 348 348 347 346 345 346 346 345 343 341 339 339 338 337 336 334 338 335 335
310 311 320 319 324 330 334 337 336 336 335 335 333 332 331 333 333 333 334 335 337 340 342 343 348 347 348 347 346 346 345 343 342 340 338 336 334 333 333 332 336 332 333
309 310 312 318 322 325 330 334 336 336 336 335 334 333 332 332 332 333 333 334 336 340 341 343 345 346 348 347 346 345 343 340 340 339 338 335 333 333 332 331 331 331 330
309 310 312 317 320 323 326 330 334 336 336 336 336 335 334 334 334 333 333 333 336 338 341 342 344 345 347 346 345 344 341 339 338 337 335 333 331 330 331 331 331 329 329
308 310 312 316 319 321 324 326 329 332 335 335 336 336 335 335 335 334 333 333 333 336 339 341 342 344 344 344 345 343 340 337 336 333 333 332 330 329 329 330 329 328 330
308 310 313 316 318 320 323 325 326 329 333 334 334 335 334 333 333 332 332 332 333 335 337 341 341 342 344 343 344 342 339 336 334 333 331 328 328 330 328 327 327 329 328
308 310 311 315 317 319 321 323 326 328 331 332 332 333 332 332 331 331 331 331 333 334 334 337 341 341 340 341 342 341 337 334 330 330 328 326 327 328 327 328 330 327 327
307 309 310 313 316 317 319 321 323 326 329 330 330 330 329 329 330 329 328 330 330 331 332 335 336 339 340 340 341 339 334 330 328 328 327 326 330 330 330 330 328 327 327
308 308 309 310 313 316 318 319 320 323 326 328 328 327 325 325 326 326 324 326 327 328 330 332 334 335 339 339 339 336 330 328 329 328 325 326 330 329 331 329 326 325 325
306 307 308 309 311 314 316 318 319 320 322 325 327 325 323 323 322 321 321 320 323 324 327 330 331 331 332 337 337 331 326 326 327 326 324 325 329 329 331 327 325 324 323
304 306 307 308 310 313 315 317 317 318 320 322 324 323 323 323 321 319 318 317 319 319 320 325 326 325 325 323 327 324 323 322 325 323 324 328 328 330 329 326 325 323 323
299 303 306 308 310 311 313 316 316 318 318 322 322 323 322 322 320 319 316 317 318 317 320 322 322 321 319 320 320 321 320 320 319 319 325 328 329 330 328 325 323 324 322
298 301 304 307 310 311 314 317 314 318 317 318 315 316 316 318 318 317 317 317 317 314 315 316 316 315 315 317 317 318 319 319 321 324 322 327 329 330 327 325 324 323 321
295 297 300 304 307 309 313 312 312 313 312 312 312 311 311 312 313 313 314 314 313 314 313 314 313 313 312 314 315 316 318 319 322 322 319 319 327 328 327 325 325 322 319
293 295 296 300 306 308 310 309 311 311 311 309 310 308 308 309 310 311 311 311 311 313 312 313 311 310 310 310 310 311 311 314 317 319 318 316 323 327 326 326 326 322 321
293 293 295 296 301 307 309 308 308 309 307 307 309 307 306 306 306 309 309 309 310 312 312 311 309 308 306 307 306 306 307 308 311 313 316 314 315 321 325 326 325 322 322
293 293 293 294 297 301 307 306 308 308 307 306 306 306 304 304 303 303 308 308 308 310 311 310 309 307 304 304 301 302 302 304 306 307 308 309 309 313 323 324 324 322 320
292 292 293 295 295 297 301 302 303 302 302 302 304 304 303 302 301 301 303 306 307 308 308 309 307 304 302 300 299 298 299 300 302 302 302 303 305 306 310 317 321 322 319
292 292 295 297 297 298 298 299 299 298 297 297 298 300 300 300 300 300 300 301 305 306 307 307 305 303 300 299 299 298 297 298 298 302 300 300 300 302 303 307 310 316 320
292 293 295 296 296 297 299 299 299 298 297 297 297 297 298 300 299 299 298 299 301 304 305 305 302 301 300 299 298 296 296 296 297 297 299 300 300 299 300 302 305 307 314
292 292 294 294 295 296 296 295 295 295 296 296 296 296 296 297 298 296 296 297 298 300 303 304 301 299 297 298 297 296 296 296 295 296 297 298 299 300 300 300 302 304 306
291 291 293 294 295 295 295 296 296 296 296 295 295 295 295 295 296 295 294 295 296 297 299 302 301 299 298 299 297 296 293 294 295 295 296 295 296 298 299 300 301 302 304
291 290 292 293 293 294 293 293 293 294 293 292 292 292 293 294 294 295 296 296 295 295 297 299 301 300 297 298 300 298 291 291 293 295 294 295 296 296 297 298 298 300 302
290 292 292 293 293 292 292 291 290 289 288 290 290 292 292 293 292 292 294 296 295 295 294 297 299 301 299 297 299 300 299 298 292 290 293 294 295 295 296 297 297 298 299
291 291 292 293 291 290 291 291 290 289 290 290 290 290 290 291 292 291 291 293 294 295 294 294 297 298 299 299 298 297 297 298 297 294 290 291 293 295 297 297 297 297 298
291 292 291 290 289 289 289 289 288 287 288 288 288 288 289 289 290 290 289 290 292 293 294 293 296 296 296 296 298 298 297 295 295 295 293 291 292 293 296 296 296 297 297
Wind_Speed
17 19 24 26 28 29 28 23 16 15 13 14 15 16 20 19 19 19 24 25 21 17 17 16 15 15 14 13 12 12 11 12 11 11 9 9 8 8 7 5 6 10 10
19 19 21 26 27 27 26 26 18 14 14 13 16 14 19 22 21 21 23 22 24 20 18 20 18 17 16 14 13 11 14 13 12 10 10 9 7 8 8 6 8 10 10
19 18 20 27 27 27 26 26 24 16 14 15 13 14 11 15 18 21 21 22 23 21 18 20 22 18 16 14 13 14 15 13 13 11 12 9 9 8 9 10 10 10 10
18 17 17 25 26 26 26 24 24 22 18 18 19 16 12 14 16 18 20 22 23 24 21 18 22 22 16 16 15 17 15 13 12 10 10 6 8 7 9 9 10 9 9
18 17 17 23 25 25 26 25 24 23 23 20 20 18 19 15 17 16 19 20 24 23 26 20 19 21 19 18 18 18 17 15 12 10 5 6 7 8 8 9 9 8 9
17 18 18 23 25 24 24 25 24 24 22 20 20 19 18 17 18 20 19 19 21 22 25 22 19 19 22 18 19 19 18 15 12 10 6 5 5 11 9 8 9 11 12
17 17 18 22 23 23 22 23 24 23 22 22 20 20 18 19 17 17 18 20 21 21 24 28 20 18 15 19 18 19 18 15 12 8 8 7 10 10 10 11 12 12 12
16 16 17 19 21 22 22 22 23 23 24 20 20 21 21 19 17 16 18 19 19 23 22 26 23 16 20 21 20 19 17 14 10 8 8 7 11 12 12 13 13 11 11
16 16 16 17 19 20 19 22 23 22 23 21 18 17 18 16 16 16 15 17 19 20 20 23 19 16 16 21 20 21 18 14 11 8 9 9 11 10 13 14 13 11 9
16 17 18 17 17 16 15 17 22 23 23 22 17 12 14 14 14 14 14 16 19 19 20 21 17 20 22 18 19 20 16 6 8 8 6 9 13 11 15 13 12 11 10
15 16 17 17 17 17 14 15 17 19 21 20 15 15 12 9 11 13 14 17 18 17 17 18 18 17 14 25 10 20 12 1 3 4 5 13 13 14 15 14 13 10 9
22 21 18 18 17 16 13 13 15 12 13 15 17 17 10 10 9 10 9 15 16 14 16 15 16 17 12 4 5 12 5 8 6 4 7 11 12 13 15 14 10 11 10
16 15 18 18 17 16 12 10 8 8 10 10 17 16 14 11 9 8 6 6 8 11 8 10 9 7 9 6 5 5 6 4 4 4 6 3 10 15 15 14 13 11 9
17 18 18 18 16 16 10 9 11 10 10 9 12 17 13 9 10 9 7 9 7 7 8 6 4 7 8 8 7 6 6 3 3 3 8 8 7 14 14 13 14 13 10
15 16 17 17 16 14 14 11 10 11 10 12 11 13 12 11 10 9 8 7 7 7 6 6 5 5 6 7 7 7 7 6 5 4 5 14 9 12 14 13 17 12 11
14 15 16 17 17 15 13 14 11 11 12 13 12 14 14 11 11 10 9 8 6 6 6 5 6 5 5 6 7 8 7 6 7 5 4 8 17 12 7 12 13 12 12
12 14 15 14 15 15 14 11 10 10 11 10 10 16 17 15 13 14 9 7 7 7 7 4 3 4 4 4 6 7 6 9 7 6 5 6 7 15 8 7 9 8 9
11 12 12 12 15 15 14 11 9 10 10 10 10 11 18 17 17 12 11 9 7 7 5 4 3 2 3 4 4 5 6 7 7 8 7 5 4 5 11 16 14 11 4
10 11 12 14 15 14 13 10 10 12 9 9 10 10 14 14 16 12 10 11 13 6 5 4 2 2 2 4 5 5 5 5 6 4 6 6 7 6 4 8 12 12 13
9 10 11 12 15 14 10 10 9 8 9 8 9 10 14 11 14 13 11 12 12 9 5 3 2 2 1 3 5 4 3 1 4 4 4 3 4 5 2 4 3 6 12
8 9 11 13 14 11 9 10 9 9 8 9 9 15 15 14 15 12 11 12 12 11 11 2 1 2 2 1 2 3 3 5 4 2 3 4 4 1 4 3 3 3 4
7 9 11 13 14 11 10 9 9 10 10 10 10 12 14 15 15 12 11 11 14 12 12 9 3 2 1 3 1 1 1 2 2 1 2 3 4 3 4 4 4 4 3
8 8 9 11 13 12 13 9 9 9 9 10 10 10 13 14 15 15 15 11 12 11 11 11 8 4 2 3 2 1 1 2 1 0 1 1 2 2 2 3 4 4 3
7 6 7 10 11 11 12 11 13 10 10 10 10 9 10 14 14 15 16 13 12 10 13 12 10 6 1 2 1 3 2 1 2 1 0 1 2 2 2 2 2 2 3
6 6 7 9 11 12 12 13 10 12 9 9 10 13 13 11 14 15 15 15 13 9 12 13 12 10 8 3 2 1 3 2 3 2 1 2 1 2 2 2 2 1 1
5 6 7 9 10 11 12 13 13 14 13 11 12 10 10 10 10 14 16 14 13 12 10 11 12 13 9 8 7 2 3 2 0 2 2 1 2 3 2 1 3 2 1
Wind_Direction
343 343 351 353 349 348 349 353 357 359 17 6 7 8 353 11 5 349 356 352 344 317 266 258 256 229 212 203 195 194 169 135 131 117 113 111 112 119 113 108 151 102 103
335 346 347 356 348 347 348 351 354 355 355 352 2 359 14 358 357 349 352 345 349 337 299 269 261 234 219 206 202 164 154 136 120 130 132 126 127 125 117 92 72 107 112
344 349 350 354 348 347 347 349 355 351 344 345 350 355 345 360 356 348 343 347 343 339 319 291 264 243 225 207 188 165 151 141 129 140 169 155 120 123 117 113 115 124 117
346 351 357 351 350 348 348 349 351 353 356 351 343 345 347 340 344 347 339 335 337 339 326 302 280 256 230 208 183 167 151 152 143 172 200 143 133 133 127 134 128 127 132
350 353 360 354 353 353 348 349 349 348 347 351 350 1 353 351 339 338 333 331 335 331 326 306 279 269 237 208 183 169 157 159 164 193 148 155 142 133 141 128 127 120 117
351 355 355 357 355 356 355 351 350 348 345 351 349 351 354 354 348 338 340 341 333 325 333 320 278 275 240 207 185 169 158 165 179 202 164 113 143 124 137 126 127 116 104
356 354 354 358 357 357 359 358 353 351 349 358 353 351 353 348 347 340 342 336 344 347 338 325 318 274 279 196 191 167 160 173 198 158 141 172 116 144 156 143 128 123 111
1 358 356 356 358 357 358 3 0 356 350 356 359 354 348 346 340 340 340 335 345 342 340 325 342 326 191 195 195 172 162 184 209 160 154 146 126 152 149 138 131 126 115
7 4 1 358 357 359 356 6 359 0 352 350 350 351 349 349 353 344 337 334 340 343 339 332 345 342 293 201 196 171 167 192 175 159 164 123 138 162 157 136 126 118 116
12 7 5 1 359 1 2 13 0 356 351 344 336 341 341 340 348 342 334 336 333 342 342 352 6 38 31 224 214 165 151 215 175 148 171 125 150 167 145 133 125 132 131
16 12 6 2 2 358 3 13 2 350 351 346 347 350 343 346 341 338 337 333 333 334 333 346 357 8 43 51 78 108 118 166 121 157 120 138 155 171 144 134 132 142 140
9 6 5 0 2 1 360 10 1 356 357 2 357 355 346 339 335 331 333 327 327 324 330 346 2 6 2 76 78 70 54 40 358 353 113 139 160 157 147 139 147 150 139
9 6 4 359 359 2 358 6 0 8 6 3 359 3 352 349 343 340 334 338 337 351 347 357 4 12 10 360 61 90 91 95 250 87 52 112 176 159 151 153 153 148 132
14 9 5 3 0 2 2 13 0 4 9 6 6 5 353 351 347 344 345 339 346 345 338 355 9 10 15 22 20 41 58 61 44 81 54 358 230 167 158 162 153 147 144
13 9 7 4 5 5 12 10 5 6 7 6 6 7 360 351 348 339 338 336 336 338 335 351 10 17 21 22 30 25 30 19 28 61 82 42 34 180 167 167 158 156 148
12 10 5 6 8 10 21 9 10 12 12 8 5 5 2 358 351 340 336 333 335 326 339 2 11 21 25 29 33 28 18 20 12 55 71 65 40 19 208 171 165 151 148
14 11 8 7 13 14 18 19 11 7 11 12 11 4 2 3 357 350 333 331 331 324 331 332 13 25 31 46 41 41 26 8 15 22 28 70 41 36 32 152 140 150 142
16 14 14 15 17 17 14 21 20 17 12 12 8 7 6 1 358 352 341 337 326 316 318 323 345 38 62 45 43 28 23 14 13 28 24 33 63 31 39 50 80 92 110
16 16 22 22 19 16 16 19 20 22 15 9 9 13 7 360 357 353 349 335 338 312 311 316 348 354 66 67 66 45 34 19 355 14 42 21 45 49 43 50 47 54 74
17 23 23 22 17 7 8 4 5 7 13 11 4 9 5 5 360 359 352 344 343 328 308 306 338 350 43 114 97 79 55 72 51 353 11 88 41 36 36 38 46 54 54
25 23 22 15 14 10 2 358 351 351 356 359 4 6 2 0 2 357 354 349 342 347 329 287 19 329 31 237 139 89 45 45 18 17 356 23 34 343 44 21 20 40 92
20 23 18 11 9 9 356 354 354 1 358 3 359 359 359 357 355 360 352 356 346 344 344 337 208 224 126 232 18 96 172 169 157 50 11 28 45 28 21 10 28 5 339
20 19 8 6 6 7 1 357 360 3 4 5 4 358 354 358 1 356 352 1 355 349 343 345 330 230 204 213 202 307 124 250 59 189 150 94 44 67 65 57 27 26 355
10 14 3 1 9 5 5 3 3 360 5 360 355 350 353 354 2 4 349 353 356 350 349 341 341 324 228 190 227 218 194 286 204 267 276 311 342 339 9 74 21 32 16
21 3 1 360 11 7 6 8 3 3 0 354 354 349 354 354 359 359 352 350 353 349 349 343 347 354 2 310 189 185 225 243 233 268 219 181 193 231 204 198 172 163 20
30 9 11 5 14 10 6 10 11 4 359 358 356 352 352 351 351 353 354 350 351 348 349 349 350 355 359 345 342 208 242 269 166 232 221 132 170 159 174 210 204 181 168